Regional Weather Roundup
Issued by NWS

Home | Current Version | Previous Version | Graphics & Text | Print | Product List | Glossary On
Versions: 1 2 3 4 5 6 7 8 9 10 11 12 13 14 15 16 17 18 19 20 21 22 23 24 25 26 27 28 29 30 31 32 33 34 35 36 37 38 39 40 41 42 43 44 45 46 47 48 49 50
497
ASUS45 KSLC 272310
RWRUT

UTAH REGIONAL WEATHER ROUNDUP
NATIONAL WEATHER SERVICE SALT LAKE CITY UT
500 PM MDT FRI MAY 27 2016

UTZ001>011-023>025-280000-

NORTHERN UTAH

CITY           SKY/WX    TMP DP  RH WIND       PRES   REMARKS
BRIGHAM CITY     N/A     64  40  41 W13G18    29.93R
HILL AFB       MOSUNNY   68  35  30 W12       29.91F
LOGAN          MOSUNNY   62  41  46 VRB5      29.93F
OGDEN          CLOUDY    67  37  33 NW12      29.90S
PROVO AIRPORT  PTSUNNY   64  37  36 N12       29.94F
SALT LAKE CITY MOSUNNY   69  39  33 S14       29.89F
VERNAL         PTSUNNY   63  35  35 SW14      29.90R
WENDOVER       PTSUNNY   63  43  48 N12G17    29.89S
HEBER CITY     CLOUDY    54  37  54 W15G29    29.95R
WEST JORDAN    SUNNY     64  41  42 S12       29.93F

$$

UTZ012>022-026-027-280000-

SOUTHERN/CENTRAL UTAH

CITY           SKY/WX    TMP DP  RH WIND       PRES   REMARKS
BLANDING       PTSUNNY   67  30  25 E7        29.98S
BRYCE CANYON   PTSUNNY   61  27  27 NW15G25   30.03S
CEDAR CITY     PTSUNNY   67  32  27 SW9G22    29.94F
DELTA          MOSUNNY   68  32  26 E12       29.91F
HANKSVILLE     MOSUNNY   72  30  21 W16       29.86S
MILFORD        PTSUNNY   72  31  22 VRB3      29.91F
MOAB/CYNLANDS  SUNNY     76  26  15 NW12      29.82F
PRICE          MOSUNNY   68  28  22 NW10      29.92S
ST GEORGE      MOCLDY    82  36  18 W12       29.83F
KANAB          SUNNY     77  32  19 SW13G18   29.93F

$$

REGIONAL REPORTS     COLORADO/ARIZONA

CITY           SKY/WX    TMP DP  RH WIND       PRES   REMARKS
CRAIG, CO      CLOUDY    56  40  55 E13       29.95R
GRAND JUNCTION MOSUNNY   68  31  25 N10       29.87S
RIFLE          CLOUDY    62  39  42 E14       29.92R
MONTROSE       CLOUDY    64  31  28 W18       29.94R
CORTEZ         CLOUDY    65  29  25 N23G33    29.91R
PAGE, AZ       MOSUNNY   79  25  13 W12G18    29.84F
GRAND CANYON   CLOUDY    67  26  21 VRB7G18   30.01F
KINGMAN        SUNNY     81  27  14 W9        29.86F
FLAGSTAFF      PTSUNNY   62  25  24 W10G16    30.04S

$$

REGIONAL REPORTS    NEVADA/IDAHO/WYOMING

CITY           SKY/WX    TMP DP  RH WIND       PRES   REMARKS
LAS VEGAS, NV  MOSUNNY   87  27  11 VRB3      29.73F
ELY            PTSUNNY   65  29  25 E9        29.96F
ELKO           MOSUNNY   69  30  23 W16G26    29.92F
POCATELLO, ID  MOSUNNY   69  31  24 SW18G24   29.90F
BURLEY         PTSUNNY   63  35  35 MISG      29.92R
EVANSTON, WY   CLOUDY    54  35  48 CALM      29.99F
ROCK SPRINGS   CLOUDY    56  36  47 SW21      29.93S
KEMMERER       DRIZZLE   46  37  71 NW10G18   30.01R

$$




USA.gov is the U.S. government's official web portal to all federal, state and local government web resources and services.